Location: Central Falls
(41.8900°N, 71.3929°W)
Time: 04:13:54
(UTC+00:00)

Vanguard 2 Rocket - Pass Details

Date: 07 December 2023
Orbit: 555 x 3309 km, 32.9° (Epoch: 01 March)

Event Time Altitude Azimuth Distance (km) Brightness Sun altitude
Rises 15:22:04 0° 181° (S) 5,192 12.0 23.2°
Reaches altitude 10° 15:27:07 10° 162° (SSE) 4,716 12.6 23.5°
Maximum altitude 15:34:44 17° 129° (SE) 4,820 11.7 23.9°
Drops below altitude 10° 15:44:01 10° 97° (E) 5,944 11.4 24.3°
Sets 15:51:46 0° 81° (E) 7,234 11.5 24.6°
